Theta_e
318 323 318 321 327 334 334 335 336 339 338 340 346 348 350 349 356 369 352 351 352 350 347 344 337 344 349 346 344 334 330 334 332 333 335 338 339 340 339 336 335 337 341 341 341 340 339 339 338
328 321 317 320 325 331 336 333 334 337 338 343 344 347 348 352 353 355 354 351 352 348 346 346 338 347 349 345 345 329 334 336 332 332 332 335 339 338 332 334 338 342 343 343 341 341 339 335 331
323 319 319 319 320 326 332 334 333 335 337 340 342 342 345 356 352 354 355 351 352 347 344 349 338 351 346 344 342 330 337 337 331 329 330 331 330 331 335 338 342 345 345 343 340 336 331 329 326
323 319 320 321 320 322 326 332 335 334 335 334 338 342 348 353 352 354 354 353 353 346 344 346 337 346 346 344 338 335 340 335 329 328 329 329 330 334 338 341 341 339 337 335 333 330 327 325 324
323 321 320 321 321 322 324 326 331 335 334 335 337 342 349 355 354 355 354 355 352 346 345 346 335 340 345 343 336 339 340 333 329 328 328 329 331 334 336 335 334 334 333 331 328 327 324 324 324
324 321 321 321 321 322 324 325 327 332 335 334 337 340 348 353 354 355 354 355 350 346 347 345 334 334 340 339 337 340 338 333 331 328 328 328 329 331 332 332 331 329 328 326 325 324 324 325 325
324 321 320 321 322 322 323 325 325 329 334 334 335 341 351 352 354 355 355 355 349 348 345 343 343 343 336 339 340 340 335 333 332 329 328 329 330 331 329 327 327 326 324 325 326 327 329 329 329
323 323 322 321 322 322 324 324 325 325 330 334 333 334 345 351 355 355 354 352 350 349 346 343 342 341 342 345 337 335 333 334 332 329 327 327 327 325 325 324 323 324 327 328 332 334 337 336 336
321 322 322 322 322 322 324 324 325 325 327 330 333 334 353 353 354 354 354 352 350 348 346 344 342 340 337 338 340 335 334 333 331 330 327 325 335 333 328 340 335 326 330 336 338 339 338 338 340
321 322 321 321 322 323 323 323 324 323 323 326 331 341 353 353 354 354 353 352 350 347 346 343 342 341 339 338 342 339 342 341 339 337 330 335 339 339 339 339 325 326 339 340 344 345 343 346 347
320 322 321 320 321 321 322 322 323 322 323 325 326 339 350 352 354 353 350 350 349 347 344 343 343 343 340 339 338 337 340 340 342 342 337 339 341 340 333 338 340 343 344 348 347 347 348 348 348
319 320 321 320 320 320 320 321 321 322 323 325 325 327 349 350 352 351 348 348 349 347 345 344 345 346 343 342 337 336 336 338 341 344 345 343 340 341 338 335 338 342 343 347 348 344 349 352 350
317 318 320 320 320 320 321 319 320 321 322 324 328 328 339 350 350 349 347 347 348 347 346 346 346 348 347 346 341 341 337 337 338 341 345 342 337 339 338 337 340 343 344 344 346 354 353 350 345
317 316 317 319 320 320 321 321 319 320 321 322 329 334 339 346 350 350 349 349 350 349 348 347 348 350 349 348 346 345 344 341 338 338 340 339 339 340 336 338 340 345 345 348 348 349 347 344 338
316 317 318 317 319 321 321 321 319 320 321 322 326 330 335 346 348 353 350 351 351 351 350 350 349 350 350 350 349 348 347 344 342 339 338 338 339 342 335 337 344 346 351 350 349 343 341 335 328
316 317 318 318 318 317 320 323 321 320 321 322 323 326 327 332 343 350 353 352 352 351 352 352 350 351 352 351 350 349 347 345 343 339 338 339 339 341 338 340 346 351 351 348 345 333 328 324 324
317 317 318 317 318 318 319 321 321 322 321 322 323 323 326 334 338 350 353 353 352 352 352 352 351 350 352 351 351 350 347 346 341 338 337 337 337 338 339 341 354 350 346 340 332 327 325 323 322
316 317 316 317 317 317 319 319 321 322 322 321 323 323 326 333 342 349 353 353 352 351 352 353 350 350 351 351 351 349 346 344 339 337 334 337 337 337 344 351 347 344 337 331 328 326 324 324 324
316 318 315 315 316 317 318 319 320 322 321 321 322 323 325 331 342 348 352 352 353 352 351 352 351 351 351 351 350 347 342 340 337 337 335 339 340 347 351 343 341 336 331 329 327 327 326 324 323
316 320 318 318 316 317 318 320 320 321 322 322 322 323 324 329 343 349 351 351 352 352 352 351 350 350 351 351 349 343 339 337 337 339 342 345 349 350 345 341 339 335 332 329 328 328 327 325 320
315 316 318 320 316 317 317 319 321 321 322 323 322 323 324 326 342 350 354 352 351 351 351 351 350 350 350 347 341 340 339 339 351 352 352 350 350 347 344 342 338 335 333 331 330 325 321 320 322
318 315 318 319 317 324 318 320 321 321 322 322 323 322 324 326 340 350 354 354 352 351 350 350 349 349 348 343 341 342 343 349 352 351 349 347 345 344 342 339 336 333 332 328 323 319 321 324 324
316 318 317 322 324 326 319 318 321 322 321 322 323 322 323 325 339 347 354 353 352 351 351 351 350 350 347 346 343 347 349 350 349 347 344 340 338 340 338 337 335 332 327 324 320 319 322 323 323
317 318 318 322 328 334 322 318 320 324 322 322 323 323 323 325 337 346 352 353 353 352 353 353 351 351 348 348 347 350 347 350 347 341 340 339 338 337 336 334 329 328 323 321 324 320 324 324 322
318 322 326 328 332 326 318 319 320 324 323 322 323 323 324 330 339 343 350 354 353 353 353 353 352 351 349 349 349 349 350 348 345 342 341 338 336 335 329 329 326 322 325 325 325 324 322 320 318
318 321 334 330 324 319 323 320 320 325 322 322 322 323 325 331 338 342 347 352 352 352 353 352 353 351 350 350 349 349 349 346 345 343 341 337 333 330 328 326 323 323 322 319 319 320 318 317 317
321 325 326 332 326 323 321 321 325 322 321 322 322 323 326 330 340 345 346 348 351 352 352 352 352 351 350 350 349 348 348 348 345 344 340 337 330 326 323 323 321 319 319 319 317 318 317 316 315
322 324 330 330 330 330 321 320 326 322 322 323 324 325 328 333 340 345 347 348 348 351 352 350 351 351 350 349 348 348 348 345 341 337 333 327 324 322 322 319 318 317 316 316 315 315 315 314 314
322 323 326 330 332 332 325 337 332 324 323 323 324 327 331 334 339 344 348 349 350 351 349 350 349 348 347 345 345 342 341 337 333 328 324 323 322 318 317 316 316 315 314 314 314 314 311 312 312
322 322 326 331 333 332 331 338 333 333 332 324 325 327 331 333 336 341 346 349 350 349 348 347 345 345 341 339 337 332 332 329 325 321 320 318 316 315 314 313 312 312 313 313 312 311 310 310 311
Wind_Speed
7 9 12 13 8 9 21 24 22 19 4 6 8 1 9 9 14 5 14 11 22 27 29 27 26 24 27 29 29 27 26 23 21 20 18 17 16 15 14 13 12 11 10 9 8 7 6 4 4
10 9 12 8 11 17 18 24 24 20 4 7 5 4 8 6 15 12 13 13 25 27 27 26 26 24 26 30 29 27 26 23 21 20 19 17 16 14 14 13 11 9 8 7 6 4 3 3 3
9 12 9 7 18 22 22 24 21 15 14 7 5 2 4 11 7 10 14 24 26 26 27 26 28 24 28 31 29 28 25 22 20 20 19 18 17 15 14 12 10 8 6 5 3 2 1 2 4
10 9 9 15 25 30 31 26 19 18 18 12 9 6 8 5 3 4 17 24 26 27 26 27 29 25 28 30 29 28 25 21 19 18 19 18 17 14 12 9 8 6 4 3 1 2 3 4 5
17 10 13 21 29 30 24 28 29 14 19 17 13 11 5 7 6 9 20 25 26 27 25 27 29 27 27 27 27 26 23 20 19 18 17 16 15 13 10 7 6 4 3 2 1 2 4 5 6
10 12 17 23 28 30 29 25 23 22 17 18 14 13 6 10 9 14 20 24 26 28 25 26 28 27 26 26 26 25 22 19 18 18 17 15 14 11 9 7 5 4 2 0 1 4 6 7 8
20 16 23 27 26 30 27 27 26 21 16 23 12 15 6 9 12 16 21 24 26 26 26 25 23 23 25 24 24 24 21 19 18 17 15 14 12 11 8 6 4 3 1 1 3 4 6 8 9
16 18 30 27 25 32 22 24 26 18 23 18 9 9 12 12 14 20 22 26 26 26 27 26 24 22 21 19 22 22 21 20 17 16 14 13 12 9 7 5 4 2 1 2 4 5 7 7 7
20 19 23 31 29 24 23 24 21 17 20 22 18 12 13 19 19 23 23 25 25 26 26 27 26 23 22 20 19 21 20 18 16 15 14 13 10 9 7 7 4 2 2 2 4 6 7 7 8
21 18 30 25 26 23 26 28 19 15 19 23 18 12 17 17 19 21 24 24 26 28 28 28 27 26 24 20 19 18 17 15 14 13 14 12 11 10 7 6 3 1 1 2 3 5 6 6 11
25 26 24 25 25 25 24 21 22 21 20 27 23 18 15 16 19 20 26 26 27 28 28 29 27 26 25 22 21 20 18 16 15 14 14 11 11 9 8 7 6 4 4 5 2 7 4 7 7
25 28 27 27 25 21 22 18 21 19 23 18 24 25 22 19 18 20 22 27 27 27 26 27 26 25 23 23 22 20 19 19 17 16 15 12 12 9 7 7 3 5 6 2 5 5 3 6 8
26 27 26 22 22 25 19 21 24 24 19 23 5 18 25 20 18 22 24 26 27 28 27 27 26 24 21 20 21 20 19 19 18 18 17 15 14 10 8 6 6 4 4 7 4 7 6 6 7
20 24 24 24 22 22 24 23 21 25 23 22 10 11 14 22 21 21 25 25 25 25 25 27 26 24 21 20 18 18 17 17 17 18 18 16 13 12 10 8 8 6 7 1 2 3 1 5 6
23 23 22 21 24 23 22 27 25 25 20 22 19 14 13 15 22 23 27 25 25 27 27 24 28 26 23 21 18 17 18 17 17 16 16 17 16 13 11 11 9 8 4 5 6 3 1 1 3
15 20 22 24 23 26 23 28 29 25 25 22 23 18 17 16 18 27 30 27 24 26 27 26 26 26 24 23 20 18 18 17 16 14 15 17 17 15 15 12 11 6 5 5 4 3 3 3 3
20 20 24 27 24 23 28 30 28 26 25 25 25 25 16 17 17 24 29 30 27 26 28 28 27 27 26 23 20 18 15 16 16 16 16 17 16 15 12 12 7 7 4 2 3 4 4 5 8
20 24 23 25 23 24 27 31 27 22 27 27 22 19 20 18 18 23 26 30 29 27 25 24 25 26 27 24 21 19 17 18 16 16 15 15 15 14 12 9 11 8 6 5 4 4 5 5 6
25 26 27 20 24 24 25 26 25 22 23 28 28 23 21 20 16 23 26 29 29 28 28 27 25 22 24 21 22 20 19 16 13 14 13 13 14 12 14 9 9 9 9 7 5 3 4 5 8
17 25 26 26 21 22 26 22 27 25 20 20 27 24 22 19 17 19 26 29 30 29 28 26 26 26 30 21 19 18 17 17 15 14 14 13 14 14 12 11 12 11 9 7 5 4 5 2 15
19 23 22 29 20 22 21 25 26 26 24 16 23 25 24 20 19 19 21 26 28 28 29 28 26 24 21 22 22 16 14 15 9 9 10 11 15 13 13 14 12 11 9 6 4 3 2 8 13
18 20 26 28 15 15 22 18 21 28 26 26 20 24 25 24 21 19 21 23 27 27 26 26 24 24 24 23 22 19 19 16 14 12 9 13 14 13 14 12 10 9 7 8 6 6 10 8 7
22 18 12 14 17 21 24 18 19 25 27 29 27 23 26 26 22 20 22 26 27 26 26 25 25 24 23 23 19 19 17 12 11 13 16 13 12 12 12 10 8 7 8 6 5 7 7 9 9
15 11 9 9 14 14 23 21 22 25 29 30 28 25 25 27 24 21 22 28 27 26 25 25 26 25 24 22 19 20 18 16 14 14 15 14 15 15 12 10 11 11 7 7 5 7 6 7 7
7 3 4 4 8 12 23 24 19 28 30 35 30 27 26 25 23 21 21 21 26 27 26 25 26 25 24 23 19 16 15 13 14 16 15 15 13 11 13 13 10 11 10 5 6 4 6 7 6
19 12 5 3 10 10 20 15 12 21 28 30 29 26 26 25 23 22 22 21 28 28 26 23 23 23 25 21 21 18 18 15 15 15 14 11 9 11 15 12 13 12 8 6 4 3 4 5 6
11 4 10 11 15 11 14 17 8 8 24 25 28 27 26 25 23 23 21 22 27 27 26 25 26 23 21 20 20 19 18 13 13 10 12 12 16 16 18 16 15 13 9 4 4 4 6 7 8
14 10 2 4 7 4 17 14 11 13 20 21 25 25 23 23 23 21 21 18 24 25 22 20 22 21 19 17 13 12 9 8 17 16 17 18 19 22 20 18 17 13 5 6 4 6 8 9 10
11 17 13 4 7 5 11 4 7 17 13 18 22 22 22 22 21 21 20 23 25 26 21 19 20 21 19 22 14 16 15 20 19 20 20 23 24 24 22 17 15 10 8 5 7 9 7 9 11
14 11 5 4 7 5 4 3 6 12 4 20 19 21 23 21 19 20 20 21 26 24 26 16 22 23 24 23 23 23 24 23 24 26 27 26 24 19 20 17 14 10 12 10 10 8 10 11 10
Wind_Direction
258 259 244 257 242 235 249 242 243 251 225 241 320 313 333 45 12 65 124 138 142 149 157 160 164 164 167 172 173 170 167 162 156 155 152 152 153 146 140 138 133 126 123 118 111 104 95 78 53
263 239 232 255 236 241 240 238 245 236 199 66 276 232 259 62 58 105 142 154 147 152 157 159 165 164 167 172 174 171 170 163 160 156 153 152 151 146 142 138 133 129 123 117 113 96 70 40 10
257 229 238 223 233 237 246 241 224 226 225 176 246 256 359 61 60 132 116 150 148 154 157 161 163 165 169 172 175 172 171 166 162 156 153 153 151 147 145 140 136 130 124 121 122 105 27 349 338
225 212 247 249 235 229 241 256 259 222 218 182 226 254 104 58 114 101 149 154 151 156 157 167 163 167 173 174 177 175 172 168 163 158 155 154 151 149 146 140 135 131 124 117 80 8 347 333 330
235 239 232 230 239 246 238 233 260 224 234 190 203 224 129 110 107 140 156 159 156 154 156 162 166 168 177 179 179 178 174 171 164 161 157 155 152 151 149 144 136 131 128 107 11 327 321 321 321
217 232 236 232 236 238 245 250 228 250 239 235 186 229 113 116 149 149 161 159 161 155 154 163 170 171 177 183 183 180 177 174 168 163 159 157 153 153 149 149 146 145 150 152 324 326 322 323 323
232 224 236 245 245 235 236 239 249 237 225 242 188 204 110 149 148 155 161 161 158 157 155 158 163 168 179 182 182 181 181 178 171 164 159 156 154 155 157 159 157 166 182 307 326 320 319 320 322
233 248 248 242 246 249 236 236 233 209 244 253 218 207 199 157 160 153 162 165 158 158 157 160 163 163 166 171 184 183 180 175 170 163 161 160 160 159 153 152 175 188 246 314 313 318 326 325 321
224 243 240 243 244 249 257 248 226 212 233 247 244 206 89 139 159 151 164 164 164 164 161 165 164 164 165 167 174 178 177 173 169 165 165 163 163 166 181 184 234 236 288 316 330 332 335 335 287
228 232 244 246 251 255 257 250 235 225 221 239 235 121 127 145 168 166 169 172 173 171 168 168 168 166 164 165 170 171 177 172 171 171 174 177 173 177 176 186 228 245 341 276 5 359 337 310 310
226 240 252 242 258 262 264 272 247 238 218 226 231 179 165 167 178 177 174 179 177 175 172 170 170 168 167 165 168 176 180 180 183 183 183 195 184 190 194 204 218 217 264 273 273 275 301 346 328
236 241 242 260 267 257 258 270 264 220 238 228 218 224 166 182 185 183 187 176 179 177 177 169 170 174 174 164 173 176 181 185 189 189 189 187 191 187 203 211 211 225 228 328 243 291 358 331 349
237 245 248 252 256 259 272 242 255 260 240 257 280 230 176 182 188 187 184 180 178 178 177 174 171 177 178 164 180 179 184 186 192 192 196 197 202 190 200 196 226 250 264 250 262 38 23 338 338
257 249 257 254 251 246 247 251 244 246 256 239 175 252 190 180 182 187 190 181 182 174 175 175 173 176 182 184 187 182 187 188 192 195 200 201 200 191 198 200 220 229 238 309 321 47 359 328 345
265 259 261 249 243 242 243 248 244 242 234 237 202 199 229 206 186 181 191 185 181 174 174 173 175 178 184 187 188 189 189 192 196 200 192 199 200 191 205 210 215 216 215 191 175 151 193 50 6
261 257 248 239 227 235 239 242 233 235 232 226 234 201 206 219 211 183 184 182 184 180 172 169 183 179 186 189 187 196 196 198 202 201 203 203 205 200 202 215 221 188 189 191 177 115 96 65 35
247 247 238 244 224 226 220 240 238 223 225 236 219 219 187 211 210 185 184 180 182 181 175 180 184 183 185 190 191 199 196 200 204 204 207 207 207 206 208 225 154 137 184 140 100 73 56 45 10
245 237 237 255 226 220 223 232 241 225 217 219 224 203 195 210 196 186 184 180 181 181 180 177 186 188 183 188 192 194 195 203 206 207 208 194 208 207 208 150 136 148 150 135 126 113 96 57 349
269 297 266 227 246 225 228 234 225 243 218 207 217 206 209 190 186 181 187 180 177 180 179 180 184 181 179 188 190 192 193 199 205 206 207 198 206 196 176 141 144 160 147 144 138 136 92 25 354
255 260 271 273 220 229 230 225 237 216 241 213 206 209 206 186 183 180 184 180 178 180 180 181 186 187 177 182 189 177 202 181 202 207 193 197 192 176 153 153 170 160 151 148 140 155 189 42 26
254 249 247 259 230 225 232 237 211 222 231 224 210 212 205 199 182 181 180 179 178 183 184 186 187 186 185 173 180 174 181 185 164 145 145 164 183 168 167 174 179 169 169 170 157 119 81 54 38
256 229 239 255 221 257 210 226 220 209 218 222 234 206 200 197 181 181 180 181 181 183 185 188 186 183 187 176 182 174 185 193 197 180 166 162 170 170 169 172 168 153 158 156 130 62 39 16 29
242 264 245 282 266 249 201 226 221 203 206 216 214 213 202 188 182 184 182 181 181 180 180 179 181 182 183 182 182 182 191 185 148 163 162 170 167 167 164 163 162 154 150 129 96 62 54 27 26
255 263 262 313 272 253 223 206 232 190 198 207 205 205 201 184 181 179 181 175 177 179 177 178 181 179 180 180 192 184 198 167 157 154 151 155 155 157 156 150 154 160 126 101 62 51 33 32 18
176 136 210 228 210 221 193 191 227 178 196 196 195 201 195 181 177 178 180 171 170 172 173 176 177 173 176 182 185 182 188 166 170 167 176 171 166 158 168 163 159 121 107 96 74 61 32 22 6
203 204 284 184 205 196 181 191 220 250 185 190 191 193 188 188 172 181 181 175 173 169 173 175 171 167 161 173 179 178 168 179 182 188 180 180 176 157 162 142 115 101 97 84 58 25 37 358 338
233 174 297 312 271 159 175 168 175 222 171 180 178 187 184 181 170 176 181 174 175 169 169 168 167 166 164 176 179 181 183 186 186 151 134 151 151 149 137 129 123 111 96 93 39 356 16 346 340
226 134 288 218 191 297 161 177 140 183 165 179 172 175 174 177 172 174 175 174 172 165 159 157 160 156 158 169 163 154 139 131 131 126 136 135 138 139 129 118 112 102 87 45 7 1 359 342 340
212 233 204 225 120 247 139 86 329 151 175 174 171 158 167 183 173 172 168 162 166 140 145 153 162 152 124 123 117 110 121 124 128 126 132 133 131 129 122 109 97 86 63 21 358 12 343 346 352
299 313 329 280 24 316 141 285 62 95 96 167 184 164 161 176 171 163 161 171 151 157 134 148 104 107 108 114 121 122 129 129 125 121 120 119 118 114 107 95 80 73 52 13 1 341 344 344 349